RH
6 8 5 4 3 4 3 2 2 2 2 2 3 3 3 3 4 4 4 5 6 6 8 7 8 10 9 12 15 12 19 59 99 100 82 73 69 79 100 100 100 82 61 76 62
4 6 5 3 2 3 3 3 2 2 2 2 2 3 3 3 4 4 5 4 6 6 7 7 7 11 9 11 17 14 12 40 100 100 95 72 65 60 100 100 100 91 72 69 79
5 5 4 3 2 2 2 2 2 2 2 2 2 2 3 3 4 4 4 5 5 6 7 7 7 10 10 11 14 17 12 28 88 100 100 87 62 54 95 100 100 100 86 67 72
4 5 4 3 2 2 2 2 2 2 2 2 2 2 2 3 4 4 4 4 4 6 7 7 7 10 12 11 15 15 14 16 67 100 100 100 83 59 66 100 100 100 100 80 69
4 6 4 4 2 2 2 2 2 2 2 2 2 2 2 2 3 4 4 5 5 6 8 6 8 11 13 13 16 17 15 16 40 99 100 100 100 77 62 96 100 100 100 98 71
6 5 4 4 2 2 2 2 2 2 2 2 1 1 2 2 2 4 5 5 6 5 7 8 8 12 13 13 15 16 16 14 19 82 100 100 100 92 94 77 100 100 100 100 92
7 5 4 4 2 2 2 2 2 2 2 2 1 1 1 2 2 4 4 6 6 5 6 9 8 11 14 14 15 17 16 14 18 77 100 100 100 100 92 100 88 100 100 100 100
9 6 5 4 3 2 2 2 2 2 2 2 1 1 1 1 2 3 3 6 7 7 6 9 8 11 13 13 16 18 16 15 24 56 100 100 100 100 87 90 100 96 75 90 100
13 7 6 5 4 2 2 2 2 2 2 2 2 1 2 1 2 2 3 4 7 7 6 9 8 10 12 14 16 18 15 17 23 36 100 100 100 100 71 78 82 100 100 79 83
17 9 6 6 5 2 2 2 2 2 2 2 2 2 2 2 2 2 3 4 8 8 7 9 9 9 11 13 16 18 19 20 24 33 93 100 100 100 72 60 84 90 97 100 92
22 12 7 7 5 3 2 2 2 2 2 2 2 2 2 2 2 2 2 3 6 7 8 9 8 9 14 15 19 19 23 28 50 48 69 100 100 100 90 54 70 82 88 99 100
30 16 9 7 6 4 3 2 2 2 2 3 2 2 2 2 2 2 3 3 5 9 9 8 10 12 12 16 17 20 21 31 62 51 59 100 100 100 84 61 50 72 85 94 98
33 21 11 8 6 4 3 2 2 2 2 3 2 2 2 2 2 2 3 3 5 11 9 9 12 11 14 15 17 20 25 44 68 60 41 66 85 100 86 65 56 58 80 89 98
33 25 14 10 7 4 4 2 3 3 3 3 3 2 2 2 2 3 3 4 5 11 11 10 11 12 16 17 18 19 23 30 43 54 53 46 82 57 88 79 64 58 66 78 80
35 27 25 11 8 6 4 3 3 3 3 3 4 3 3 2 2 2 3 4 6 14 14 11 11 12 16 19 18 19 20 28 34 52 63 39 32 55 45 47 82 68 58 66 77
42 32 28 14 8 8 5 4 4 3 3 3 4 4 3 3 3 3 4 5 8 12 14 10 8 11 15 19 19 19 20 22 27 45 40 41 27 44 53 41 63 67 58 53 62
43 33 34 20 9 6 6 4 4 4 4 3 4 4 4 3 3 4 4 4 6 11 13 9 9 13 16 19 19 19 19 20 22 50 45 35 26 89 46 56 47 54 73 72 69
44 32 38 24 10 8 7 5 4 4 4 4 4 4 6 4 4 5 6 5 7 10 9 8 13 14 19 20 23 22 18 20 21 26 53 26 21 46 47 40 46 56 77 87 95
38 39 37 31 13 7 5 8 5 4 5 5 4 5 6 7 5 5 7 9 10 10 10 12 18 15 17 21 21 24 20 19 19 23 23 22 22 44 51 44 47 45 62 93 94
38 41 39 40 26 8 6 7 5 4 6 5 5 5 6 9 8 6 6 11 15 16 17 18 18 17 16 18 20 24 25 22 20 20 21 28 34 62 83 72 66 57 60 61 68
37 40 39 46 48 12 8 8 6 5 6 6 5 5 6 10 11 9 7 8 12 20 24 28 31 26 22 20 22 24 24 26 25 21 24 52 76 85 96 76 74 74 67 56 63
37 49 45 39 52 23 8 7 6 7 5 6 6 6 6 6 12 13 12 10 11 13 15 23 38 37 31 27 26 25 24 23 23 27 27 44 100 100 100 98 85 92 75 65 68
38 53 43 41 51 53 11 6 7 7 5 5 7 7 6 7 9 13 14 13 11 11 10 10 15 22 27 32 33 27 29 31 30 29 30 29 26 52 100 100 100 100 100 95 74
36 55 52 40 42 57 19 6 12 6 6 5 6 7 7 7 8 12 16 15 16 14 14 14 13 13 14 19 19 28 28 24 25 28 28 28 30 28 29 73 100 100 100 100 100
36 53 54 41 46 49 38 8 10 6 6 5 6 7 7 8 8 8 18 18 16 17 16 17 18 18 16 14 15 17 19 20 23 25 23 23 26 29 29 26 24 22 23 44 95
38 49 54 41 43 45 50 12 8 8 7 5 5 6 7 7 9 9 13 23 21 19 20 19 19 21 20 21 21 20 20 20 19 19 20 18 20 21 23 24 22 21 20 20 19
37 50 53 49 38 41 48 23 11 9 7 6 5 6 7 7 8 10 11 18 26 26 21 23 24 23 22 20 23 24 21 22 22 22 22 23 20 20 19 20 20 20 20 18 17
Wind_Speed
87 91 84 78 71 63 61 59 55 51 51 45 49 49 51 53 57 60 64 71 77 84 91 96 96 102 100 102 105 104 108 108 101 102 99 90 87 83 76 73 70 68 65 66 63
91 91 89 85 71 60 56 55 56 53 50 48 45 51 51 54 57 62 69 73 75 81 87 93 95 100 102 104 109 109 104 107 102 104 102 94 90 86 80 76 74 70 67 68 67
95 96 95 85 76 63 55 52 53 52 49 48 45 46 52 55 60 67 71 75 78 80 86 90 92 97 102 104 108 109 100 106 111 109 104 96 92 88 84 78 78 74 72 71 71
96 98 98 91 82 72 60 55 53 51 47 43 42 40 45 53 64 71 72 75 77 80 83 87 87 94 100 102 109 110 105 106 116 110 105 100 95 89 89 84 81 76 72 69 73
101 101 100 97 89 78 63 60 58 52 48 37 31 39 41 48 59 67 71 73 76 79 81 84 85 92 98 104 110 112 111 110 117 114 108 105 100 93 89 90 83 79 78 75 73
104 104 104 100 94 81 68 63 60 58 49 40 31 30 38 46 52 63 68 73 79 81 79 83 83 90 96 104 110 116 111 112 110 115 109 107 102 99 93 94 90 83 85 80 77
107 107 106 102 98 89 75 64 63 58 56 41 32 27 30 41 50 62 65 75 79 81 80 82 84 87 93 102 111 114 114 111 109 115 111 108 109 102 99 95 96 89 88 87 81
109 110 110 107 102 95 84 71 65 60 56 40 30 24 22 33 49 61 62 72 80 82 81 83 85 86 91 100 109 114 114 112 111 115 115 112 110 109 105 101 94 92 90 87 84
110 111 112 109 107 100 89 77 70 66 61 42 32 25 19 26 43 54 59 67 78 81 81 82 83 84 88 97 106 112 110 109 114 114 116 113 110 114 111 104 99 91 90 88 86
110 111 110 111 108 102 94 81 74 69 63 48 37 29 19 18 34 46 53 64 73 79 81 80 81 82 83 92 94 101 106 109 114 113 115 114 110 113 117 108 102 97 91 90 87
108 110 111 109 107 103 98 87 76 71 65 55 43 32 19 9 26 36 44 53 67 73 78 77 78 74 74 86 95 103 109 112 113 115 115 118 113 114 120 112 105 99 93 88 87
106 109 110 108 105 102 98 88 78 72 66 61 44 34 23 7 13 25 37 46 57 68 77 75 72 80 81 87 95 101 107 109 115 119 116 120 119 118 123 116 107 102 98 94 88
108 107 108 108 104 99 94 87 80 72 68 64 47 37 23 13 1 15 31 38 49 62 70 71 73 77 79 82 92 100 106 111 115 116 116 119 123 124 121 117 111 105 102 99 92
104 108 107 105 102 96 91 91 82 72 67 62 52 38 27 14 6 5 19 32 44 55 65 70 73 73 76 80 90 97 104 108 113 116 116 119 120 122 122 119 113 108 105 102 99
101 107 107 106 101 98 92 90 82 74 67 61 55 41 32 16 11 7 13 24 35 52 61 67 70 71 74 79 85 94 100 107 110 115 117 116 116 117 120 116 113 110 108 106 102
100 106 106 107 104 101 94 88 79 73 66 62 56 43 33 19 15 10 12 25 38 48 56 62 64 66 70 76 82 89 95 103 109 114 112 114 114 114 114 112 113 113 111 108 106
98 103 103 103 106 102 98 86 76 70 66 62 55 48 36 24 14 15 10 17 25 36 46 47 52 60 66 71 78 84 90 97 104 112 111 112 112 111 113 113 112 110 110 109 107
94 99 102 97 100 103 99 89 76 67 63 59 55 49 38 29 14 15 10 4 19 32 34 30 39 54 61 66 71 80 85 90 97 105 112 107 103 107 112 109 108 109 108 107 106
90 95 101 101 93 99 97 93 75 64 60 55 52 47 41 31 17 9 11 7 5 20 21 27 41 52 58 63 67 74 79 85 90 95 97 96 96 104 105 102 101 100 104 107 107
88 92 97 98 97 90 94 92 79 65 57 52 47 42 38 30 22 11 7 10 8 11 11 13 25 38 52 59 60 63 72 76 82 87 87 90 92 101 106 105 102 99 101 103 105
86 90 94 98 97 91 94 95 81 68 54 49 43 39 32 27 22 15 8 8 15 17 18 16 22 26 36 44 53 59 61 68 74 76 85 93 101 105 110 102 100 99 98 95 94
84 91 97 98 100 90 95 94 83 71 54 45 40 34 30 25 17 13 11 7 12 18 21 23 24 27 31 45 53 57 59 58 60 67 78 91 117 111 117 108 101 102 95 89 88
82 88 93 95 96 93 88 89 83 71 56 43 34 32 27 24 18 12 7 7 9 15 20 24 28 35 38 43 46 52 57 58 60 65 65 75 93 104 121 115 115 110 104 103 96
80 86 91 93 93 91 82 87 84 70 59 44 33 25 25 21 18 13 8 6 7 13 19 22 27 31 36 41 48 53 59 62 61 58 65 65 74 82 94 107 117 117 119 119 112
81 83 88 90 92 96 90 83 88 75 62 47 35 23 20 18 16 14 10 8 8 9 14 18 24 27 31 36 42 47 48 51 55 60 56 63 64 69 75 79 86 92 95 100 112
79 84 89 88 94 98 98 78 80 75 63 49 35 27 22 16 12 13 12 9 8 11 12 14 18 24 29 32 35 39 42 44 47 49 49 55 60 65 69 72 73 76 79 82 87
81 84 88 90 92 102 100 75 77 73 63 49 38 27 22 18 15 11 12 12 10 10 13 15 17 20 22 26 30 34 38 41 42 44 45 48 55 59 62 65 69 70 71 73 76
Wind_Direction
355 358 356 348 343 336 330 326 319 311 301 289 279 269 258 248 237 233 229 224 220 218 218 221 216 216 215 215 217 217 215 211 214 218 218 216 217 216 219 223 223 222 221 220 223
354 358 357 352 346 340 333 326 320 314 305 295 281 269 257 249 239 232 229 226 220 219 217 219 217 214 215 213 214 217 215 210 213 219 220 217 217 216 217 223 222 223 223 222 223
353 356 358 354 350 344 337 330 325 319 312 298 286 268 256 245 238 230 227 225 220 217 216 218 216 213 213 212 213 216 212 212 212 218 220 219 218 217 216 221 224 221 222 223 223
352 356 360 356 353 349 342 337 334 328 321 301 287 274 255 244 236 231 226 223 221 219 216 217 215 213 211 213 213 215 214 213 212 214 219 218 219 220 217 217 223 224 224 224 225
351 357 358 357 354 351 347 344 340 339 332 316 289 271 258 244 235 230 225 221 220 219 214 216 213 212 210 211 211 213 213 213 214 212 216 217 218 217 221 218 220 222 222 224 226
350 356 357 359 356 353 352 350 347 344 342 328 305 277 255 240 235 229 224 219 219 217 214 214 213 210 208 210 210 214 214 214 214 213 215 218 218 217 218 221 218 219 222 223 225
349 354 356 0 358 355 356 355 352 352 348 335 317 296 266 238 230 225 220 216 217 216 212 212 212 209 207 209 209 212 212 214 214 214 214 217 218 217 217 221 222 216 218 222 223
348 352 355 358 357 357 358 357 356 359 353 343 334 317 280 237 226 224 220 213 213 216 212 211 211 209 208 207 208 210 211 212 214 215 214 216 219 220 217 218 223 224 221 220 223
348 350 354 356 357 358 359 359 359 1 359 353 350 340 305 244 222 223 220 213 212 212 212 210 211 209 207 207 208 210 211 212 215 215 216 216 219 222 220 217 219 223 227 226 223
348 349 352 354 356 359 360 1 0 3 2 360 0 353 332 256 222 220 217 214 210 209 212 209 210 209 209 207 208 211 212 212 216 216 215 217 219 223 225 218 219 221 224 229 229
349 349 351 354 357 358 358 359 4 3 4 6 4 357 350 275 228 222 216 216 210 209 211 209 210 209 209 206 206 208 210 212 215 218 216 217 218 224 226 221 219 221 224 226 231
349 350 350 353 357 358 357 358 3 5 5 9 5 4 3 342 235 217 211 213 209 207 209 208 207 209 206 205 206 208 211 212 215 216 217 219 219 222 225 224 220 221 223 226 228
349 350 350 353 357 358 358 0 1 5 7 9 6 11 8 19 264 218 210 210 206 205 208 208 206 207 208 206 207 208 210 211 215 219 219 220 223 223 226 228 224 221 223 225 227
350 349 350 353 359 0 358 1 1 4 9 8 9 12 14 34 73 187 202 205 203 203 208 208 207 205 209 208 208 209 211 213 216 219 220 223 223 226 226 227 228 226 225 226 227
349 351 352 351 357 0 358 360 1 2 8 10 11 14 14 24 58 98 184 196 196 201 208 210 208 204 207 210 210 212 213 214 217 219 222 224 225 227 230 228 229 230 228 227 229
348 351 353 351 355 359 358 360 2 0 4 9 11 16 22 26 64 87 165 187 198 203 210 213 211 205 207 211 212 213 215 215 218 222 224 226 228 229 231 231 230 232 233 231 230
349 352 355 357 351 356 0 1 3 0 4 5 11 14 22 25 60 85 144 187 199 206 215 217 211 207 208 213 215 215 217 217 219 221 225 227 230 228 232 232 233 232 234 235 235
350 354 356 4 355 353 356 359 3 2 2 6 6 11 20 21 46 92 85 137 198 209 217 213 212 208 210 214 216 219 221 220 222 222 226 230 232 231 234 234 235 235 235 237 237
350 355 356 0 0 353 353 356 359 4 359 4 5 8 12 20 26 73 110 107 148 220 222 214 213 210 212 215 217 220 223 224 224 227 230 234 234 234 237 240 239 238 237 239 239
349 354 356 357 1 355 351 353 357 2 1 360 3 5 7 12 19 4 145 159 177 220 219 247 224 219 216 217 220 223 225 228 230 228 233 236 237 237 237 240 241 240 241 240 241
346 353 357 356 357 359 349 350 354 358 1 356 358 0 5 7 8 9 335 208 194 206 220 235 244 229 221 221 224 226 227 229 231 232 232 233 235 239 239 241 242 243 243 243 243
346 352 353 355 356 1 350 346 350 355 358 356 351 354 356 2 8 1 346 285 223 214 213 214 218 227 220 221 221 224 227 229 230 230 231 230 230 238 239 243 245 246 248 248 245
345 350 354 356 360 359 352 345 349 351 353 356 351 344 349 350 357 2 346 307 265 235 227 214 213 215 216 221 225 228 230 228 227 227 225 228 231 235 236 240 243 247 251 253 254
343 351 353 357 0 357 355 346 346 347 350 350 351 342 335 343 342 346 343 310 268 245 237 229 222 218 219 220 220 218 222 225 228 230 228 226 230 232 235 238 241 245 247 248 250
341 348 352 355 0 359 354 348 340 345 347 345 344 339 333 328 332 327 328 311 284 252 233 230 228 225 225 222 219 222 224 227 229 232 232 230 230 231 233 236 238 242 244 245 247
340 347 351 354 355 359 358 346 341 343 345 343 339 335 328 326 314 313 310 303 282 269 260 247 231 226 223 221 220 223 224 227 228 230 231 230 231 231 232 235 239 240 242 244 246
338 345 348 350 351 355 355 347 339 339 343 340 334 330 322 315 306 301 293 287 278 267 256 246 248 245 237 232 224 224 223 224 226 228 230 231 232 234 234 235 238 241 242 242 243